This is the latest recevied weather packets stored in our database for station/object WX7FGZ-6. If no packets are shown the sender has not sent any weather packets the latest 10 day(s).
| Time | Temp. | Humidity | Pressure | Rain* | Wind** | Luminosity | Snow |
|---|---|---|---|---|---|---|---|
| 1777901420 | -0.56° C | 58% | 1016.6 hPa | 0 mm | - | - | - |
| 1777901341 | -1.11° C | 59% | 1016.7 hPa | 0 mm | - | - | - |
| 1777901120 | -1.11° C | 59% | 1016.7 hPa | 0 mm | - | - | - |
| 1777900111 | -1.11° C | 58% | 1016.5 hPa | 0 mm | - | - | - |
| 1777899812 | -1.11° C | 56% | 1016.4 hPa | 0 mm | - | - | - |
| 1777899771 | -1.11° C | 58% | 1016.4 hPa | 0 mm | - | - | - |
| 1777899512 | -1.11° C | 58% | 1016.4 hPa | 0 mm | - | - | - |
| 1777899211 | -1.11° C | 60% | 1016.5 hPa | 0 mm | - | - | - |
| 1777898911 | -1.11° C | 59% | 1016 hPa | 0 mm | - | - | - |
| 1777898577 | -1.11° C | 59% | 1016.8 hPa | 0 mm | - | - | - |
| 1777898311 | -1.11° C | 59% | 1016.8 hPa | 0 mm | - | - | - |
| 1777898012 | -1.11° C | 60% | 1016.7 hPa | 0 mm | - | - | - |
| 1777897901 | -1.11° C | 59% | 1016.8 hPa | 0 mm | - | - | - |
| 1777897712 | -1.11° C | 59% | 1016.8 hPa | 0 mm | - | - | - |
| 1777897411 | -1.11° C | 59% | 1016.6 hPa | 0 mm | - | - | - |
| 1777897260 | -1.11° C | 59% | 1016.7 hPa | 0 mm | - | - | - |
| 1777897111 | -1.11° C | 59% | 1016.7 hPa | 0 mm | - | - | - |
| 1777896811 | -1.11° C | 60% | 1016.5 hPa | 0 mm | - | - | - |
| 1777896511 | -1.67° C | 61% | 1016.4 hPa | 0 mm | - | - | - |
| 1777896212 | -1.67° C | 62% | 1016.2 hPa | 0 mm | - | - | - |
| 1777895874 | -1.67° C | 62% | 1016.5 hPa | 0 mm | - | - | - |
| 1777895656 | -1.67° C | 62% | 1016.5 hPa | 0 mm | - | - | - |
| 1777895356 | -1.67° C | 65% | 1016.3 hPa | 0 mm | - | - | - |
| 1777895056 | -1.67° C | 64% | 1016.3 hPa | 0 mm | - | - | - |
| 1777894931 | -1.67° C | 66% | 1016.2 hPa | 0 mm | - | - | - |
* Rain latest hour (hover to see other rain measurements)
** Current wind speed in m/s (hover to see current wind gust speed)